Time,TemperatureF,DewpointF,PressureIn,WindDirection,WindDirectionDegrees,WindSpeedMPH,WindSpeedGustMPH,Humidity,HourlyPrecipIn,Conditions,Clouds,dailyrainin,SoftwareType,DateUTC
2013-08-13 00:01:00,70.9,52.3,29.83,East,88,0.0,0.0,52,0.00,,,0.00,meteobridge,2013-08-13 06:01:00,
2013-08-13 00:06:00,70.9,52.3,29.83,East,88,0.0,0.0,52,0.00,,,0.00,meteobridge,2013-08-13 06:06:00,
2013-08-13 00:11:00,70.5,52.0,29.84,East,88,0.0,0.0,52,0.00,,,0.00,meteobridge,2013-08-13 06:11:00,
2013-08-13 00:16:00,70.0,52.0,29.84,East,88,0.0,0.0,53,0.00,,,0.00,meteobridge,2013-08-13 06:16:00,
2013-08-13 00:22:00,69.6,52.2,29.84,East,88,0.0,0.0,54,0.00,,,0.00,meteobridge,2013-08-13 06:22:00,
2013-08-13 00:27:00,69.3,52.3,29.84,East,88,0.0,0.0,55,0.00,,,0.00,meteobridge,2013-08-13 06:27:00,
2013-08-13 00:32:00,69.1,52.7,29.84,East,88,0.0,0.0,56,0.00,,,0.00,meteobridge,2013-08-13 06:32:00,
2013-08-13 00:37:00,68.5,53.2,29.84,East,88,0.0,0.0,58,0.00,,,0.00,meteobridge,2013-08-13 06:37:00,
2013-08-13 00:42:00,68.4,53.1,29.84,East,88,0.0,0.0,58,0.00,,,0.00,meteobridge,2013-08-13 06:42:00,
2013-08-13 00:47:00,68.4,53.1,29.84,East,88,0.0,0.0,58,0.00,,,0.00,meteobridge,2013-08-13 06:47:00,
2013-08-13 00:52:00,68.4,52.5,29.84,East,88,0.0,0.0,57,0.00,,,0.00,meteobridge,2013-08-13 06:52:00,
2013-08-13 00:58:00,68.2,52.3,29.84,East,88,0.0,0.0,57,0.00,,,0.00,meteobridge,2013-08-13 06:58:00,
2013-08-13 01:03:00,68.2,52.3,29.84,East,88,0.0,0.0,57,0.00,,,0.00,meteobridge,2013-08-13 07:03:00,
2013-08-13 01:08:00,68.0,52.2,29.84,East,88,0.0,0.0,57,0.00,,,0.00,meteobridge,2013-08-13 07:08:00,
2013-08-13 01:13:00,67.6,52.9,29.84,East,88,0.0,0.0,59,0.00,,,0.00,meteobridge,2013-08-13 07:13:00,
2013-08-13 01:18:00,67.5,52.2,29.84,East,88,0.0,0.0,58,0.00,,,0.00,meteobridge,2013-08-13 07:18:00,
2013-08-13 01:23:00,67.5,52.2,29.83,East,88,0.0,0.0,58,0.00,,,0.00,meteobridge,2013-08-13 07:23:00,
2013-08-13 01:28:00,67.1,51.8,29.83,East,88,0.0,0.0,58,0.00,,,0.00,meteobridge,2013-08-13 07:28:00,
2013-08-13 01:33:00,66.9,52.5,29.83,East,88,0.0,0.0,60,0.00,,,0.00,meteobridge,2013-08-13 07:33:00,
2013-08-13 01:39:00,66.7,52.9,29.83,East,88,0.0,0.0,61,0.00,,,0.00,meteobridge,2013-08-13 07:39:00,
2013-08-13 01:44:00,66.7,52.9,29.83,East,88,0.0,0.0,61,0.00,,,0.00,meteobridge,2013-08-13 07:44:00,
2013-08-13 01:49:00,66.7,52.3,29.83,East,88,0.0,0.0,60,0.00,,,0.00,meteobridge,2013-08-13 07:49:00,
2013-08-13 01:55:00,66.7,52.9,29.83,East,88,0.0,0.0,61,0.00,,,0.00,meteobridge,2013-08-13 07:55:00,
2013-08-13 02:00:00,66.4,52.5,29.83,East,88,0.0,0.0,61,0.00,,,0.00,meteobridge,2013-08-13 08:00:00,
2013-08-13 02:05:00,66.4,52.9,29.83,East,88,0.0,0.0,62,0.00,,,0.00,meteobridge,2013-08-13 08:05:00,
2013-08-13 02:10:00,65.8,52.9,29.83,East,88,0.0,0.0,63,0.00,,,0.00,meteobridge,2013-08-13 08:10:00,
2013-08-13 02:15:00,65.7,52.7,29.83,East,88,0.0,0.0,63,0.00,,,0.00,meteobridge,2013-08-13 08:15:00,
2013-08-13 02:21:00,65.3,52.9,29.83,East,88,0.0,0.0,64,0.00,,,0.00,meteobridge,2013-08-13 08:21:00,
2013-08-13 02:26:00,65.1,53.1,29.83,East,88,0.0,0.0,65,0.00,,,0.00,meteobridge,2013-08-13 08:26:00,
2013-08-13 02:31:00,64.9,52.9,29.83,East,88,0.0,0.0,65,0.00,,,0.00,meteobridge,2013-08-13 08:31:00,
2013-08-13 02:36:00,64.9,52.9,29.83,East,88,0.0,0.0,65,0.00,,,0.00,meteobridge,2013-08-13 08:36:00,
2013-08-13 02:41:00,65.3,52.9,29.83,East,88,0.0,0.0,64,0.00,,,0.00,meteobridge,2013-08-13 08:41:00,
2013-08-13 02:46:00,65.1,52.7,29.83,East,88,0.0,0.0,64,0.00,,,0.00,meteobridge,2013-08-13 08:46:00,
2013-08-13 02:52:00,64.9,52.9,29.84,East,88,0.0,0.0,65,0.00,,,0.00,meteobridge,2013-08-13 08:52:00,
2013-08-13 02:57:00,64.9,52.5,29.84,East,88,0.0,0.0,64,0.00,,,0.00,meteobridge,2013-08-13 08:57:00,
2013-08-13 03:02:00,65.1,52.7,29.84,East,88,0.0,0.0,64,0.00,,,0.00,meteobridge,2013-08-13 09:02:00,
2013-08-13 03:07:00,65.1,53.1,29.84,East,88,0.0,0.0,65,0.00,,,0.00,meteobridge,2013-08-13 09:07:00,
2013-08-13 03:12:00,65.1,54.7,29.84,NE,52,0.0,2.0,69,0.00,,,0.00,meteobridge,2013-08-13 09:12:00,
2013-08-13 03:17:00,65.8,55.4,29.84,NE,52,0.0,0.0,69,0.00,,,0.00,meteobridge,2013-08-13 09:17:00,
2013-08-13 03:23:00,66.0,55.6,29.84,NE,52,0.0,0.9,69,0.00,,,0.00,meteobridge,2013-08-13 09:23:00,
2013-08-13 03:28:00,65.8,55.0,29.84,NE,52,0.0,0.9,68,0.00,,,0.00,meteobridge,2013-08-13 09:28:00,
2013-08-13 03:33:00,66.0,54.7,29.83,NE,52,0.0,0.9,67,0.00,,,0.00,meteobridge,2013-08-13 09:33:00,
2013-08-13 03:38:00,65.8,54.5,29.83,NE,52,0.0,0.0,67,0.00,,,0.00,meteobridge,2013-08-13 09:38:00,
2013-08-13 03:43:00,65.8,54.5,29.84,NE,52,0.0,0.0,67,0.00,,,0.00,meteobridge,2013-08-13 09:43:00,
2013-08-13 03:48:00,65.7,54.3,29.84,NE,52,0.0,0.0,67,0.00,,,0.00,meteobridge,2013-08-13 09:48:00,
2013-08-13 03:54:00,65.1,54.3,29.84,NE,52,0.0,0.0,68,0.00,,,0.00,meteobridge,2013-08-13 09:54:00,
2013-08-13 03:59:00,64.9,54.5,29.84,NE,52,0.0,0.0,69,0.00,,,0.00,meteobridge,2013-08-13 09:59:00,
2013-08-13 04:04:00,64.6,54.5,29.84,NE,52,0.0,0.0,70,0.00,,,0.00,meteobridge,2013-08-13 10:04:00,
2013-08-13 04:09:00,64.0,54.5,29.84,NE,52,0.0,0.0,71,0.00,,,0.00,meteobridge,2013-08-13 10:09:00,
2013-08-13 04:14:00,63.9,54.7,29.84,NE,52,0.0,0.0,72,0.00,,,0.00,meteobridge,2013-08-13 10:14:00,
2013-08-13 04:20:00,63.7,54.5,29.84,NE,52,0.0,0.0,72,0.00,,,0.00,meteobridge,2013-08-13 10:20:00,
2013-08-13 04:25:00,63.1,54.3,29.83,NE,52,0.0,0.0,73,0.00,,,0.00,meteobridge,2013-08-13 10:25:00,
2013-08-13 04:30:00,63.1,54.3,29.84,NE,52,0.0,0.0,73,0.00,,,0.00,meteobridge,2013-08-13 10:30:00,
2013-08-13 04:35:00,63.0,54.5,29.84,NE,52,0.0,0.0,74,0.00,,,0.00,meteobridge,2013-08-13 10:35:00,
2013-08-13 04:40:00,62.8,54.3,29.83,NE,52,0.0,0.0,74,0.00,,,0.00,meteobridge,2013-08-13 10:40:00,
2013-08-13 04:45:00,63.0,54.5,29.84,NE,52,0.0,0.0,74,0.00,,,0.00,meteobridge,2013-08-13 10:45:00,
2013-08-13 04:50:00,62.8,54.3,29.84,NE,52,0.0,0.0,74,0.00,,,0.00,meteobridge,2013-08-13 10:50:00,
2013-08-13 04:55:00,62.6,54.5,29.84,NE,52,0.0,0.0,75,0.00,,,0.00,meteobridge,2013-08-13 10:55:00,
2013-08-13 05:01:00,62.4,54.3,29.84,NE,52,0.0,0.0,75,0.00,,,0.00,meteobridge,2013-08-13 11:01:00,
2013-08-13 05:06:00,62.2,54.5,29.84,NE,52,0.0,0.0,76,0.00,,,0.00,meteobridge,2013-08-13 11:06:00,
2013-08-13 05:11:00,62.2,54.9,29.84,NE,52,0.0,0.0,77,0.00,,,0.00,meteobridge,2013-08-13 11:11:00,
2013-08-13 05:16:00,62.2,54.9,29.84,NE,52,0.0,0.0,77,0.00,,,0.00,meteobridge,2013-08-13 11:16:00,
2013-08-13 05:22:00,62.1,54.7,29.84,NE,52,0.0,0.0,77,0.00,,,0.00,meteobridge,2013-08-13 11:22:00,
2013-08-13 05:27:00,62.1,54.7,29.84,NE,52,0.0,0.0,77,0.00,,,0.00,meteobridge,2013-08-13 11:27:00,
2013-08-13 05:32:00,61.7,54.9,29.84,NE,52,0.0,0.0,78,0.00,,,0.00,meteobridge,2013-08-13 11:32:00,
2013-08-13 05:37:00,61.5,54.7,29.84,NE,52,0.0,0.0,78,0.00,,,0.00,meteobridge,2013-08-13 11:37:00,
2013-08-13 05:42:00,61.5,54.7,29.85,NE,52,0.0,0.0,78,0.00,,,0.00,meteobridge,2013-08-13 11:42:00,
2013-08-13 05:47:00,61.5,54.7,29.85,NE,51,0.0,0.9,78,0.00,,,0.00,meteobridge,2013-08-13 11:47:00,
2013-08-13 05:52:00,61.5,54.9,29.85,NE,52,0.0,0.0,79,0.00,,,0.00,meteobridge,2013-08-13 11:52:00,
2013-08-13 05:58:00,61.5,54.9,29.85,NE,52,0.0,0.0,79,0.00,,,0.00,meteobridge,2013-08-13 11:58:00,
2013-08-13 06:03:00,61.7,54.9,29.85,NE,52,0.0,0.0,78,0.00,,,0.00,meteobridge,2013-08-13 12:03:00,
2013-08-13 06:08:00,61.7,54.9,29.85,NE,52,0.0,0.0,78,0.00,,,0.00,meteobridge,2013-08-13 12:08:00,
2013-08-13 06:13:00,61.9,54.9,29.86,NE,52,0.0,0.0,78,0.00,,,0.00,meteobridge,2013-08-13 12:13:00,
2013-08-13 06:18:00,61.7,54.9,29.86,NE,52,0.0,0.0,78,0.00,,,0.00,meteobridge,2013-08-13 12:18:00,
2013-08-13 06:24:00,61.3,54.9,29.86,NE,52,0.0,0.0,79,0.00,,,0.00,meteobridge,2013-08-13 12:24:00,
2013-08-13 06:29:00,61.3,55.0,29.86,NE,52,0.0,0.0,80,0.00,,,0.00,meteobridge,2013-08-13 12:29:00,
2013-08-13 06:34:00,61.2,54.9,29.86,NE,52,0.0,0.0,80,0.00,,,0.00,meteobridge,2013-08-13 12:34:00,
2013-08-13 06:39:00,61.5,55.2,29.87,NE,52,0.0,0.0,80,0.00,,,0.00,meteobridge,2013-08-13 12:39:00,
2013-08-13 06:45:00,61.9,55.6,29.87,NE,52,0.0,0.0,80,0.00,,,0.00,meteobridge,2013-08-13 12:45:00,
2013-08-13 06:50:00,61.5,54.9,29.87,NE,52,0.0,0.0,79,0.00,,,0.00,meteobridge,2013-08-13 12:50:00,
2013-08-13 06:55:00,61.5,55.2,29.87,NE,52,0.0,0.0,80,0.00,,,0.00,meteobridge,2013-08-13 12:55:00,
2013-08-13 07:00:00,61.9,55.2,29.87,NE,52,0.0,0.0,79,0.00,,,0.00,meteobridge,2013-08-13 13:00:00,
2013-08-13 07:05:00,62.1,55.4,29.88,NE,52,0.0,0.0,79,0.00,,,0.00,meteobridge,2013-08-13 13:05:00,
2013-08-13 07:10:00,62.1,55.8,29.88,NE,52,0.0,0.0,80,0.00,,,0.00,meteobridge,2013-08-13 13:10:00,
2013-08-13 07:16:00,62.8,55.8,29.88,NE,52,0.0,0.0,78,0.00,,,0.00,meteobridge,2013-08-13 13:16:00,
2013-08-13 07:21:00,63.7,55.9,29.88,NE,52,0.0,0.0,76,0.00,,,0.00,meteobridge,2013-08-13 13:21:00,
2013-08-13 07:26:00,64.2,55.8,29.88,NE,51,0.0,0.0,74,0.00,,,0.00,meteobridge,2013-08-13 13:26:00,
2013-08-13 07:31:00,64.8,55.9,29.88,NE,52,0.0,0.0,73,0.00,,,0.00,meteobridge,2013-08-13 13:31:00,
2013-08-13 07:36:00,65.1,55.4,29.88,NE,52,0.0,0.0,71,0.00,,,0.00,meteobridge,2013-08-13 13:36:00,
2013-08-13 07:41:00,65.5,55.4,29.88,NE,52,0.0,0.0,70,0.00,,,0.00,meteobridge,2013-08-13 13:41:00,
2013-08-13 07:46:00,65.8,55.0,29.89,NE,52,0.9,2.0,68,0.00,,,0.00,meteobridge,2013-08-13 13:46:00,
2013-08-13 07:51:00,66.4,55.6,29.89,NE,40,0.0,2.0,68,0.00,,,0.00,meteobridge,2013-08-13 13:51:00,
2013-08-13 07:57:00,66.6,55.6,29.89,NE,40,0.0,0.9,68,0.00,,,0.00,meteobridge,2013-08-13 13:57:00,
2013-08-13 08:02:00,67.3,55.9,29.89,NE,40,0.0,0.0,67,0.00,,,0.00,meteobridge,2013-08-13 14:02:00,
2013-08-13 08:07:00,68.2,55.9,29.90,NE,40,0.0,0.9,65,0.00,,,0.00,meteobridge,2013-08-13 14:07:00,
2013-08-13 08:12:00,68.7,55.6,29.90,NW,308,0.9,0.9,63,0.00,,,0.00,meteobridge,2013-08-13 14:12:00,
2013-08-13 08:17:00,69.3,55.8,29.90,NW,311,0.9,2.0,62,0.00,,,0.00,meteobridge,2013-08-13 14:17:00,
2013-08-13 08:22:00,68.7,55.6,29.90,NW,309,0.0,0.9,63,0.00,,,0.00,meteobridge,2013-08-13 14:22:00,
2013-08-13 08:27:00,68.7,56.1,29.91,NW,305,0.9,2.0,64,0.00,,,0.00,meteobridge,2013-08-13 14:27:00,
2013-08-13 08:33:00,69.4,56.3,29.91,NNW,346,0.0,2.0,63,0.00,,,0.00,meteobridge,2013-08-13 14:33:00,
2013-08-13 08:38:00,70.0,55.4,29.91,West,269,2.0,4.0,60,0.00,,,0.00,meteobridge,2013-08-13 14:38:00,
2013-08-13 08:43:00,70.0,55.4,29.91,North,5,4.0,6.9,60,0.00,,,0.00,meteobridge,2013-08-13 14:43:00,
2013-08-13 08:48:00,70.3,55.8,29.91,North,355,0.9,4.0,60,0.00,,,0.00,meteobridge,2013-08-13 14:48:00,
2013-08-13 08:53:00,70.9,55.8,29.91,NNW,331,0.9,2.9,59,0.00,,,0.00,meteobridge,2013-08-13 14:53:00,
2013-08-13 08:58:00,71.4,55.9,29.91,NNW,329,0.9,2.0,58,0.00,,,0.00,meteobridge,2013-08-13 14:58:00,
2013-08-13 09:03:00,71.8,55.8,29.91,North,5,0.0,2.0,57,0.00,,,0.00,meteobridge,2013-08-13 15:03:00,
2013-08-13 09:08:00,72.1,55.6,29.91,NNW,345,0.0,2.9,56,0.00,,,0.00,meteobridge,2013-08-13 15:08:00,
2013-08-13 09:13:00,72.7,56.1,29.91,NNW,347,0.0,0.9,56,0.00,,,0.00,meteobridge,2013-08-13 15:13:00,
2013-08-13 09:18:00,73.4,55.2,29.91,NNW,333,0.0,2.0,53,0.00,,,0.00,meteobridge,2013-08-13 15:18:00,
2013-08-13 09:23:00,73.6,55.4,29.91,NNW,342,0.9,2.9,53,0.00,,,0.00,meteobridge,2013-08-13 15:23:00,
2013-08-13 09:28:00,73.8,55.0,29.91,NNW,342,0.0,2.0,52,0.00,,,0.00,meteobridge,2013-08-13 15:28:00,
2013-08-13 09:34:00,73.9,55.2,29.91,North,11,0.9,2.0,52,0.00,,,0.00,meteobridge,2013-08-13 15:34:00,
2013-08-13 09:39:00,74.8,55.6,29.91,WNW,288,0.0,0.9,51,0.00,,,0.00,meteobridge,2013-08-13 15:39:00,
2013-08-13 09:44:00,74.8,55.6,29.90,SW,223,2.0,2.0,51,0.00,,,0.00,meteobridge,2013-08-13 15:44:00,
2013-08-13 09:49:00,74.5,54.7,29.90,SSW,197,0.0,0.9,50,0.00,,,0.00,meteobridge,2013-08-13 15:49:00,
2013-08-13 09:54:00,74.7,54.9,29.90,SE,125,0.9,2.0,50,0.00,,,0.00,meteobridge,2013-08-13 15:54:00,
2013-08-13 09:59:00,74.7,54.9,29.90,SSE,160,0.0,2.0,50,0.00,,,0.00,meteobridge,2013-08-13 15:59:00,
2013-08-13 10:04:00,75.6,55.0,29.90,South,179,2.0,2.9,49,0.00,,,0.00,meteobridge,2013-08-13 16:04:00,
2013-08-13 10:09:00,77.0,55.8,29.90,West,259,2.0,2.9,48,0.00,,,0.00,meteobridge,2013-08-13 16:09:00,
2013-08-13 10:14:00,78.1,55.0,29.90,SE,138,0.0,4.0,45,0.00,,,0.00,meteobridge,2013-08-13 16:14:00,
2013-08-13 10:19:00,78.3,55.2,29.90,SSE,161,0.9,4.0,45,0.00,,,0.00,meteobridge,2013-08-13 16:19:00,
2013-08-13 10:24:00,78.6,54.9,29.90,WSW,242,0.0,2.9,44,0.00,,,0.00,meteobridge,2013-08-13 16:24:00,
2013-08-13 10:29:00,79.3,55.6,29.90,South,182,2.0,4.0,44,0.00,,,0.00,meteobridge,2013-08-13 16:29:00,
2013-08-13 10:34:00,79.0,54.5,29.90,SSE,148,0.9,4.0,43,0.00,,,0.00,meteobridge,2013-08-13 16:34:00,
2013-08-13 10:40:00,78.6,54.3,29.90,SSE,158,0.9,6.0,43,0.00,,,0.00,meteobridge,2013-08-13 16:40:00,
2013-08-13 10:45:00,79.2,54.7,29.90,South,191,2.9,4.0,43,0.00,,,0.00,meteobridge,2013-08-13 16:45:00,
2013-08-13 10:50:00,79.9,55.4,29.90,SSW,206,0.9,2.9,43,0.00,,,0.00,meteobridge,2013-08-13 16:50:00,
2013-08-13 10:55:00,80.4,54.5,29.90,NW,318,2.0,4.0,41,0.00,,,0.00,meteobridge,2013-08-13 16:55:00,
2013-08-13 11:00:00,80.2,55.0,29.90,SW,221,2.0,4.0,42,0.00,,,0.00,meteobridge,2013-08-13 17:00:00,
2013-08-13 11:05:00,80.8,55.6,29.90,SSE,157,4.9,6.0,42,0.00,,,0.00,meteobridge,2013-08-13 17:05:00,
2013-08-13 11:12:00,81.5,54.9,29.89,South,172,6.0,6.9,40,0.00,,,0.00,meteobridge,2013-08-13 17:12:00,
2013-08-13 11:17:00,81.3,53.2,29.89,WSW,237,4.9,6.9,38,0.00,,,0.00,meteobridge,2013-08-13 17:17:00,
2013-08-13 11:22:00,81.1,53.1,29.89,WSW,257,2.0,4.9,38,0.00,,,0.00,meteobridge,2013-08-13 17:22:00,
2013-08-13 11:27:00,81.3,54.0,29.89,South,174,4.9,8.1,39,0.00,,,0.00,meteobridge,2013-08-13 17:27:00,
2013-08-13 11:32:00,81.9,54.5,29.89,SE,145,4.0,6.0,39,0.00,,,0.00,meteobridge,2013-08-13 17:32:00,
2013-08-13 11:37:00,82.4,54.3,29.88,WSW,244,4.9,4.9,38,0.00,,,0.00,meteobridge,2013-08-13 17:37:00,
2013-08-13 11:42:00,82.2,55.6,29.88,South,190,0.0,4.9,40,0.00,,,0.00,meteobridge,2013-08-13 17:42:00,
2013-08-13 11:47:00,82.0,54.7,29.88,South,169,2.0,6.9,39,0.00,,,0.00,meteobridge,2013-08-13 17:47:00,
2013-08-13 11:52:00,83.1,54.9,29.88,SSE,147,6.0,8.1,38,0.00,,,0.00,meteobridge,2013-08-13 17:52:00,
2013-08-13 11:57:00,83.8,54.9,29.88,SSE,148,0.0,4.9,37,0.00,,,0.00,meteobridge,2013-08-13 17:57:00,
2013-08-13 12:02:00,82.9,55.4,29.87,SW,235,2.9,4.0,39,0.00,,,0.00,meteobridge,2013-08-13 18:02:00,
2013-08-13 12:07:00,83.7,55.4,29.87,SSE,161,4.0,6.9,38,0.00,,,0.00,meteobridge,2013-08-13 18:07:00,
2013-08-13 12:13:00,83.7,54.7,29.87,South,181,0.9,4.9,37,0.00,,,0.00,meteobridge,2013-08-13 18:13:00,
2013-08-13 12:18:00,83.5,54.5,29.87,SSW,206,6.9,8.1,37,0.00,,,0.00,meteobridge,2013-08-13 18:18:00,
2013-08-13 12:23:00,83.5,54.5,29.87,West,261,2.0,6.0,37,0.00,,,0.00,meteobridge,2013-08-13 18:23:00,
2013-08-13 12:28:00,83.8,53.2,29.86,SW,227,2.0,6.0,35,0.00,,,0.00,meteobridge,2013-08-13 18:28:00,
2013-08-13 12:33:00,84.6,54.0,29.86,WSW,248,6.0,6.0,35,0.00,,,0.00,meteobridge,2013-08-13 18:33:00,
2013-08-13 12:38:00,84.0,52.7,29.86,SW,230,4.9,6.0,34,0.00,,,0.00,meteobridge,2013-08-13 18:38:00,
2013-08-13 12:43:00,83.8,52.5,29.86,South,184,2.9,6.9,34,0.00,,,0.00,meteobridge,2013-08-13 18:43:00,
2013-08-13 12:48:00,83.7,53.1,29.85,SW,223,4.0,4.9,35,0.00,,,0.00,meteobridge,2013-08-13 18:48:00,
2013-08-13 12:53:00,84.6,52.3,29.85,NNW,336,0.0,2.0,33,0.00,,,0.00,meteobridge,2013-08-13 18:53:00,
2013-08-13 12:58:00,84.9,51.8,29.85,WNW,303,4.0,4.9,32,0.00,,,0.00,meteobridge,2013-08-13 18:58:00,
2013-08-13 13:03:00,85.8,52.5,29.85,WSW,258,2.9,8.1,32,0.00,,,0.00,meteobridge,2013-08-13 19:03:00,
2013-08-13 13:08:00,85.6,52.3,29.85,SE,140,0.9,4.9,32,0.00,,,0.00,meteobridge,2013-08-13 19:08:00,
2013-08-13 13:13:00,85.6,52.3,29.85,WSW,239,4.0,6.0,32,0.00,,,0.00,meteobridge,2013-08-13 19:13:00,
2013-08-13 13:18:00,85.5,51.4,29.84,WNW,282,4.0,6.0,31,0.00,,,0.00,meteobridge,2013-08-13 19:18:00,
2013-08-13 13:23:00,86.2,52.0,29.84,SW,223,2.9,4.0,31,0.00,,,0.00,meteobridge,2013-08-13 19:23:00,
2013-08-13 13:29:00,85.3,50.4,29.84,South,175,0.9,2.0,30,0.00,,,0.00,meteobridge,2013-08-13 19:29:00,
2013-08-13 13:34:00,87.1,51.8,29.84,SSW,211,2.0,4.0,30,0.00,,,0.00,meteobridge,2013-08-13 19:34:00,
2013-08-13 13:39:00,87.1,51.8,29.83,WNW,290,0.9,6.0,30,0.00,,,0.00,meteobridge,2013-08-13 19:39:00,
2013-08-13 13:44:00,87.4,51.3,29.83,SSE,156,0.9,4.9,29,0.00,,,0.00,meteobridge,2013-08-13 19:44:00,
2013-08-13 13:49:00,87.4,50.4,29.83,SSW,205,0.0,6.0,28,0.00,,,0.00,meteobridge,2013-08-13 19:49:00,
2013-08-13 13:54:00,87.1,51.8,29.83,SSE,162,0.9,6.0,30,0.00,,,0.00,meteobridge,2013-08-13 19:54:00,
2013-08-13 13:59:00,88.0,51.8,29.83,South,190,2.0,6.0,29,0.00,,,0.00,meteobridge,2013-08-13 19:59:00,
2013-08-13 14:04:00,87.6,50.5,29.83,SE,124,2.0,6.9,28,0.00,,,0.00,meteobridge,2013-08-13 20:04:00,
2013-08-13 14:09:00,86.4,51.3,29.82,SSW,207,2.9,4.0,30,0.00,,,0.00,meteobridge,2013-08-13 20:09:00,
2013-08-13 14:14:00,86.2,51.1,29.82,SSW,194,4.0,8.1,30,0.00,,,0.00,meteobridge,2013-08-13 20:14:00,
2013-08-13 14:19:00,85.6,51.6,29.82,SSE,154,2.9,4.9,31,0.00,,,0.00,meteobridge,2013-08-13 20:19:00,
2013-08-13 14:24:00,85.6,51.6,29.82,SSW,202,0.0,2.0,31,0.00,,,0.00,meteobridge,2013-08-13 20:24:00,
2013-08-13 14:29:00,85.8,52.5,29.82,SW,221,0.9,4.0,32,0.00,,,0.00,meteobridge,2013-08-13 20:29:00,
2013-08-13 14:34:00,85.3,50.4,29.82,WSW,244,2.9,2.9,30,0.00,,,0.00,meteobridge,2013-08-13 20:34:00,
2013-08-13 14:39:00,85.5,32.5,29.81,West,281,0.0,0.9,15,0.00,,,0.00,meteobridge,2013-08-13 20:39:00,
2013-08-13 14:44:00,85.8,48.9,29.82,SW,235,2.0,6.0,28,0.00,,,0.00,meteobridge,2013-08-13 20:44:00,
2013-08-13 14:49:00,85.3,50.4,29.81,SW,225,2.0,4.0,30,0.00,,,0.00,meteobridge,2013-08-13 20:49:00,
2013-08-13 14:54:00,84.7,47.1,29.81,SW,222,0.0,6.0,27,0.00,,,0.00,meteobridge,2013-08-13 20:54:00,
2013-08-13 14:59:00,84.9,47.1,29.81,SW,230,0.0,0.9,27,0.00,,,0.00,meteobridge,2013-08-13 20:59:00,
2013-08-13 15:04:00,85.5,43.5,29.81,SW,217,0.9,4.0,23,0.00,,,0.00,meteobridge,2013-08-13 21:04:00,
2013-08-13 15:09:00,85.6,43.5,29.81,South,169,4.0,4.9,23,0.00,,,0.00,meteobridge,2013-08-13 21:09:00,
2013-08-13 15:14:00,85.5,48.6,29.81,SW,216,6.0,6.9,28,0.00,,,0.00,meteobridge,2013-08-13 21:14:00,
2013-08-13 15:19:00,84.9,48.2,29.81,SW,222,4.0,6.0,28,0.00,,,0.00,meteobridge,2013-08-13 21:19:00,
2013-08-13 15:24:00,85.8,48.0,29.81,WSW,240,6.9,8.1,27,0.00,,,0.00,meteobridge,2013-08-13 21:24:00,
2013-08-13 15:29:00,85.5,47.7,29.81,SSE,160,6.0,6.9,27,0.00,,,0.00,meteobridge,2013-08-13 21:29:00,
2013-08-13 15:34:00,84.9,45.1,29.81,SSW,208,0.9,4.9,25,0.00,,,0.00,meteobridge,2013-08-13 21:34:00,
2013-08-13 15:39:00,85.1,44.2,29.81,SSE,164,2.0,4.0,24,0.00,,,0.00,meteobridge,2013-08-13 21:39:00,
2013-08-13 15:44:00,85.3,44.4,29.81,SW,221,4.0,10.1,24,0.00,,,0.00,meteobridge,2013-08-13 21:44:00,
2013-08-13 15:49:00,85.3,43.3,29.81,SSW,202,4.0,4.0,23,0.00,,,0.00,meteobridge,2013-08-13 21:49:00,
2013-08-13 15:54:00,84.9,44.1,29.81,SSW,194,2.0,8.1,24,0.00,,,0.00,meteobridge,2013-08-13 21:54:00,
2013-08-13 15:59:00,84.7,45.0,29.81,SW,224,4.0,6.0,25,0.00,,,0.00,meteobridge,2013-08-13 21:59:00,
2013-08-13 16:04:00,84.4,45.7,29.81,SSW,208,4.9,6.0,26,0.00,,,0.00,meteobridge,2013-08-13 22:04:00,
2013-08-13 16:09:00,84.6,45.9,29.81,SW,234,4.9,6.0,26,0.00,,,0.00,meteobridge,2013-08-13 22:09:00,
2013-08-13 16:14:00,85.5,47.7,29.81,NW,304,0.9,4.0,27,0.00,,,0.00,meteobridge,2013-08-13 22:14:00,
2013-08-13 16:19:00,87.4,48.4,29.81,SW,230,2.0,4.0,26,0.00,,,0.00,meteobridge,2013-08-13 22:19:00,
2013-08-13 16:24:00,87.1,49.1,29.81,WNW,300,4.0,4.0,27,0.00,,,0.00,meteobridge,2013-08-13 22:24:00,
2013-08-13 16:29:00,86.5,46.6,29.81,WNW,301,2.9,6.0,25,0.00,,,0.00,meteobridge,2013-08-13 22:29:00,
2013-08-13 16:34:00,86.5,47.7,29.81,West,277,2.0,12.1,26,0.00,,,0.00,meteobridge,2013-08-13 22:34:00,
2013-08-13 16:39:00,87.4,47.3,29.81,WSW,246,8.1,8.1,25,0.00,,,0.00,meteobridge,2013-08-13 22:39:00,
2013-08-13 16:44:00,88.7,46.2,29.81,NNW,342,6.0,8.1,23,0.00,,,0.00,meteobridge,2013-08-13 22:44:00,
2013-08-13 16:49:00,86.5,44.4,29.81,North,11,2.9,6.0,23,0.00,,,0.00,meteobridge,2013-08-13 22:49:00,
2013-08-13 16:54:00,86.5,44.4,29.80,North,5,2.9,8.1,23,0.00,,,0.00,meteobridge,2013-08-13 22:54:00,
2013-08-13 16:59:00,86.2,45.1,29.80,North,0,6.9,6.9,24,0.00,,,0.00,meteobridge,2013-08-13 22:59:00,
2013-08-13 17:04:00,85.3,44.4,29.80,NW,308,2.0,4.0,24,0.00,,,0.00,meteobridge,2013-08-13 23:04:00,
2013-08-13 17:09:00,85.3,44.4,29.80,NNW,342,2.0,2.9,24,0.00,,,0.00,meteobridge,2013-08-13 23:09:00,
2013-08-13 17:14:00,85.3,44.4,29.80,NNW,342,0.9,2.0,24,0.00,,,0.00,meteobridge,2013-08-13 23:14:00,
2013-08-13 17:19:00,85.5,44.6,29.80,NNW,342,0.0,0.9,24,0.00,,,0.00,meteobridge,2013-08-13 23:19:00,
2013-08-13 17:24:00,85.8,45.9,29.79,SW,224,0.9,4.0,25,0.00,,,0.00,meteobridge,2013-08-13 23:24:00,
2013-08-13 17:29:00,86.2,46.2,29.79,West,279,0.0,2.0,25,0.00,,,0.00,meteobridge,2013-08-13 23:29:00,
2013-08-13 17:34:00,85.3,45.5,29.79,West,273,0.9,0.9,25,0.00,,,0.00,meteobridge,2013-08-13 23:34:00,
2013-08-13 17:39:00,84.9,45.1,29.79,West,267,0.0,0.9,25,0.00,,,0.00,meteobridge,2013-08-13 23:39:00,
2013-08-13 17:44:00,85.3,49.5,29.79,West,267,0.0,0.9,29,0.00,,,0.00,meteobridge,2013-08-13 23:44:00,
2013-08-13 17:45:00,85.3,45.5,29.79,WSW,252,0.0,0.9,25,0.00,,,0.00,meteobridge,2013-08-13 23:45:00,
2013-08-13 17:50:00,85.3,45.5,29.78,WSW,248,0.0,2.0,25,0.00,,,0.00,meteobridge,2013-08-13 23:50:00,
2013-08-13 17:55:00,85.1,45.3,29.78,WSW,254,0.0,0.9,25,0.00,,,0.00,meteobridge,2013-08-13 23:55:00,
2013-08-13 18:00:00,84.9,45.1,29.78,ENE,60,2.0,2.0,25,0.00,,,0.00,meteobridge,2013-08-14 00:00:00,
2013-08-13 18:06:00,84.7,45.0,29.78,ENE,61,0.0,0.0,25,0.00,,,0.00,meteobridge,2013-08-14 00:06:00,
2013-08-13 18:11:00,85.5,44.6,29.77,ENE,61,0.0,0.9,24,0.00,,,0.00,meteobridge,2013-08-14 00:11:00,
2013-08-13 18:16:00,85.6,46.8,29.77,ENE,61,0.0,2.0,26,0.00,,,0.00,meteobridge,2013-08-14 00:16:00,
2013-08-13 18:21:00,86.5,46.6,29.77,NNE,17,0.9,2.0,25,0.00,,,0.00,meteobridge,2013-08-14 00:21:00,
2013-08-13 18:26:00,87.3,45.0,29.77,NNW,343,0.0,2.9,23,0.00,,,0.00,meteobridge,2013-08-14 00:26:00,
2013-08-13 18:31:00,87.3,45.0,29.78,NE,48,0.9,2.0,23,0.00,,,0.00,meteobridge,2013-08-14 00:31:00,
2013-08-13 18:36:00,87.4,46.2,29.78,NE,48,0.0,0.9,24,0.00,,,0.00,meteobridge,2013-08-14 00:36:00,
2013-08-13 18:41:00,87.3,46.0,29.77,NE,34,0.9,2.0,24,0.00,,,0.00,meteobridge,2013-08-14 00:41:00,
2013-08-13 18:46:00,87.1,45.9,29.77,NNE,33,0.9,0.9,24,0.00,,,0.00,meteobridge,2013-08-14 00:46:00,
2013-08-13 18:51:00,86.2,45.1,29.77,NE,41,0.9,0.9,24,0.00,,,0.00,meteobridge,2013-08-14 00:51:00,
2013-08-13 18:57:00,85.5,44.6,29.77,NE,42,0.0,0.9,24,0.00,,,0.00,meteobridge,2013-08-14 00:57:00,
2013-08-13 19:02:00,85.3,44.4,29.77,NE,42,0.0,0.9,24,0.00,,,0.00,meteobridge,2013-08-14 01:02:00,
2013-08-13 19:07:00,84.9,45.1,29.77,NE,42,0.0,0.0,25,0.00,,,0.00,meteobridge,2013-08-14 01:07:00,
2013-08-13 19:12:00,84.7,45.0,29.77,NE,42,0.0,2.0,25,0.00,,,0.00,meteobridge,2013-08-14 01:12:00,
2013-08-13 19:17:00,84.6,43.9,29.77,NE,49,0.0,0.9,24,0.00,,,0.00,meteobridge,2013-08-14 01:17:00,
2013-08-13 19:22:00,84.4,45.7,29.76,NE,49,0.0,0.0,26,0.00,,,0.00,meteobridge,2013-08-14 01:22:00,
2013-08-13 19:27:00,83.7,44.1,29.77,SE,128,0.0,2.0,25,0.00,,,0.00,meteobridge,2013-08-14 01:27:00,
2013-08-13 19:33:00,83.5,46.0,29.77,SE,128,0.0,0.9,27,0.00,,,0.00,meteobridge,2013-08-14 01:33:00,
2013-08-13 19:38:00,83.1,45.7,29.77,SE,128,0.0,0.0,27,0.00,,,0.00,meteobridge,2013-08-14 01:38:00,
2013-08-13 19:43:00,82.8,47.3,29.77,SE,128,0.0,0.0,29,0.00,,,0.00,meteobridge,2013-08-14 01:43:00,
2013-08-13 19:48:00,82.2,46.8,29.77,SE,128,0.0,0.0,29,0.00,,,0.00,meteobridge,2013-08-14 01:48:00,
2013-08-13 19:53:00,81.7,48.0,29.77,SE,128,0.0,0.0,31,0.00,,,0.00,meteobridge,2013-08-14 01:53:00,
2013-08-13 19:59:00,81.0,47.5,29.77,SE,128,0.0,0.0,31,0.00,,,0.00,meteobridge,2013-08-14 01:59:00,
2013-08-13 20:04:00,80.2,47.7,29.77,SE,128,0.0,0.0,32,0.00,,,0.00,meteobridge,2013-08-14 02:04:00,
2013-08-13 20:09:00,79.3,48.6,29.77,SE,128,0.0,0.0,34,0.00,,,0.00,meteobridge,2013-08-14 02:09:00,
2013-08-13 20:14:00,78.4,48.6,29.77,SE,128,0.0,0.0,35,0.00,,,0.00,meteobridge,2013-08-14 02:14:00,
2013-08-13 20:19:00,77.7,47.8,29.77,SE,128,0.0,0.0,35,0.00,,,0.00,meteobridge,2013-08-14 02:19:00,
2013-08-13 20:24:00,77.4,49.1,29.77,SE,128,0.0,0.0,37,0.00,,,0.00,meteobridge,2013-08-14 02:24:00,
2013-08-13 20:30:00,76.8,48.6,29.77,SE,128,0.0,0.0,37,0.00,,,0.00,meteobridge,2013-08-14 02:30:00,
2013-08-13 20:35:00,77.0,48.0,29.77,SE,128,0.0,0.0,36,0.00,,,0.00,meteobridge,2013-08-14 02:35:00,
2013-08-13 20:40:00,76.6,47.7,29.77,SE,128,0.0,0.0,36,0.00,,,0.00,meteobridge,2013-08-14 02:40:00,
2013-08-13 20:45:00,76.6,47.7,29.77,SE,128,0.0,0.0,36,0.00,,,0.00,meteobridge,2013-08-14 02:45:00,
2013-08-13 20:50:00,76.8,47.1,29.77,SE,128,0.0,0.0,35,0.00,,,0.00,meteobridge,2013-08-14 02:50:00,
2013-08-13 20:55:00,76.6,47.7,29.77,SE,128,0.0,0.9,36,0.00,,,0.00,meteobridge,2013-08-14 02:55:00,
2013-08-13 21:01:00,75.9,48.6,29.77,SE,128,0.0,0.9,38,0.00,,,0.00,meteobridge,2013-08-14 03:01:00,
2013-08-13 21:06:00,75.7,48.4,29.77,SE,128,0.9,0.9,38,0.00,,,0.00,meteobridge,2013-08-14 03:06:00,
2013-08-13 21:11:00,76.3,48.0,29.77,ESE,111,0.9,0.9,37,0.00,,,0.00,meteobridge,2013-08-14 03:11:00,
2013-08-13 21:16:00,76.5,48.2,29.77,ESE,111,0.0,0.0,37,0.00,,,0.00,meteobridge,2013-08-14 03:16:00,
2013-08-13 21:21:00,75.7,49.1,29.78,ESE,111,0.0,0.0,39,0.00,,,0.00,meteobridge,2013-08-14 03:21:00,
2013-08-13 21:26:00,75.4,49.5,29.78,ESE,111,0.0,0.0,40,0.00,,,0.00,meteobridge,2013-08-14 03:26:00,
2013-08-13 21:31:00,75.0,49.1,29.78,ESE,111,0.0,0.0,40,0.00,,,0.00,meteobridge,2013-08-14 03:31:00,
2013-08-13 21:36:00,74.7,48.7,29.78,ESE,111,0.0,0.0,40,0.00,,,0.00,meteobridge,2013-08-14 03:36:00,
2013-08-13 21:42:00,74.8,48.2,29.78,ESE,111,0.0,0.0,39,0.00,,,0.00,meteobridge,2013-08-14 03:42:00,
2013-08-13 21:47:00,75.0,47.7,29.79,ESE,111,0.0,0.9,38,0.00,,,0.00,meteobridge,2013-08-14 03:47:00,
2013-08-13 21:52:00,75.2,48.6,29.79,ESE,111,0.0,0.9,39,0.00,,,0.00,meteobridge,2013-08-14 03:52:00,
2013-08-13 21:57:00,74.8,48.2,29.78,ESE,111,0.0,0.9,39,0.00,,,0.00,meteobridge,2013-08-14 03:57:00,
2013-08-13 22:01:00,74.7,48.0,29.79,ESE,111,0.0,0.0,39,0.00,,,0.00,meteobridge,2013-08-14 04:01:00,
2013-08-13 22:02:00,74.7,48.0,29.79,ESE,111,0.0,0.0,39,0.00,,,0.00,meteobridge,2013-08-14 04:02:00,
2013-08-13 22:04:00,74.8,48.2,29.79,ESE,111,0.0,0.0,39,0.00,,,0.00,meteobridge,2013-08-14 04:04:00,
2013-08-13 22:09:00,75.0,47.7,29.79,ESE,111,0.0,0.0,38,0.00,,,0.00,meteobridge,2013-08-14 04:09:00,
2013-08-13 22:15:00,74.8,48.2,29.79,ESE,111,0.9,0.9,39,0.00,,,0.00,meteobridge,2013-08-14 04:15:00,
2013-08-13 22:20:00,74.1,48.9,29.79,ESE,111,0.0,0.0,41,0.00,,,0.00,meteobridge,2013-08-14 04:20:00,
2013-08-13 22:25:00,73.6,48.4,29.79,ESE,111,0.0,0.0,41,0.00,,,0.00,meteobridge,2013-08-14 04:25:00,
2013-08-13 22:30:00,73.6,47.8,29.79,ESE,111,0.0,0.9,40,0.00,,,0.00,meteobridge,2013-08-14 04:30:00,
2013-08-13 22:36:00,73.9,48.0,29.79,ESE,111,0.0,0.0,40,0.00,,,0.00,meteobridge,2013-08-14 04:36:00,
2013-08-13 22:41:00,73.9,47.5,29.79,ESE,111,0.0,0.0,39,0.00,,,0.00,meteobridge,2013-08-14 04:41:00,
2013-08-13 22:46:00,73.2,48.0,29.79,ESE,111,0.0,0.0,41,0.00,,,0.00,meteobridge,2013-08-14 04:46:00,
2013-08-13 22:51:00,73.0,48.0,29.79,ESE,111,0.0,0.0,41,0.00,,,0.00,meteobridge,2013-08-14 04:51:00,
2013-08-13 22:56:00,72.9,48.4,29.79,ESE,111,0.0,0.0,42,0.00,,,0.00,meteobridge,2013-08-14 04:56:00,
2013-08-13 23:02:00,72.9,49.1,29.79,ESE,111,0.0,0.9,43,0.00,,,0.00,meteobridge,2013-08-14 05:02:00,
2013-08-13 23:07:00,72.5,48.7,29.80,ESE,111,0.0,0.0,43,0.00,,,0.00,meteobridge,2013-08-14 05:07:00,
2013-08-13 23:12:00,72.1,48.4,29.80,ESE,111,0.0,0.0,43,0.00,,,0.00,meteobridge,2013-08-14 05:12:00,
2013-08-13 23:17:00,71.6,47.8,29.80,ESE,111,0.0,0.0,43,0.00,,,0.00,meteobridge,2013-08-14 05:17:00,
2013-08-13 23:22:00,71.1,48.6,29.80,ESE,111,0.0,0.0,45,0.00,,,0.00,meteobridge,2013-08-14 05:22:00,
2013-08-13 23:27:00,71.1,48.6,29.80,ESE,111,0.0,0.0,45,0.00,,,0.00,meteobridge,2013-08-14 05:27:00,
2013-08-13 23:33:00,70.3,49.1,29.81,ESE,111,0.0,0.0,47,0.00,,,0.00,meteobridge,2013-08-14 05:33:00,
2013-08-13 23:38:00,70.0,49.5,29.80,ESE,111,0.0,0.0,48,0.00,,,0.00,meteobridge,2013-08-14 05:38:00,
2013-08-13 23:43:00,69.6,49.6,29.81,ESE,111,0.0,0.0,49,0.00,,,0.00,meteobridge,2013-08-14 05:43:00,
2013-08-13 23:48:00,69.3,49.8,29.82,SE,140,0.0,2.0,50,0.00,,,0.00,meteobridge,2013-08-14 05:48:00,
2013-08-13 23:53:00,69.4,49.5,29.82,ENE,63,0.9,4.0,49,0.00,,,0.00,meteobridge,2013-08-14 05:53:00,
2013-08-13 23:58:00,71.4,48.9,29.82,SE,137,2.9,10.1,45,0.00,,,0.00,meteobridge,2013-08-14 05:58:00,